SKW5767 KTUS-KORD

Flight info

Callsign SKW5767
Flight time 2h 44m
Altitude 33000
Route BURRO5 NOCHI DCT SSO J104 ONM DCT DHT DCT ICT DCT IRK SHAIN2
Aircraft E175/M-SDE3GILORVW/S

Departure

Time 2026-04-25 19:38
Airport Tucson International Airport (KTUS)

Arrival

Time 2026-04-25 22:22
Airport Chicago O'Hare International Airport (KORD)
Time Latitude Longitude Altitude Speed Heading
2026-04-25 19:00 32.11933 -110.93671 2605 ft 0 kts 255°
2026-04-25 19:25 32.11934 -110.93669 2606 ft 2 kts 255°
2026-04-25 19:25 32.11938 -110.93652 2606 ft 2 kts 255°
2026-04-25 19:26 32.11941 -110.93635 2606 ft 2 kts 255°
2026-04-25 19:26 32.11945 -110.93617 2605 ft 2 kts 262°
2026-04-25 19:26 32.11942 -110.93601 2605 ft 2 kts 309°
2026-04-25 19:26 32.11931 -110.93589 2606 ft 2 kts 316°
2026-04-25 19:27 32.11920 -110.93577 2606 ft 2 kts 316°
2026-04-25 19:27 32.11917 -110.93573 2606 ft 2 kts 315°
2026-04-25 19:27 32.11899 -110.93552 2606 ft 2 kts 316°
2026-04-25 19:27 32.11888 -110.93540 2606 ft 2 kts 316°
2026-04-25 19:28 32.11877 -110.93527 2607 ft 2 kts 316°
2026-04-25 19:28 32.11872 -110.93522 2607 ft 0 kts 316°
2026-04-25 19:31 32.11875 -110.93525 2607 ft 1 kts 313°
2026-04-25 19:31 32.11874 -110.93542 2607 ft 2 kts 220°
2026-04-25 19:32 32.11852 -110.93555 2607 ft 4 kts 209°
2026-04-25 19:32 32.11827 -110.93577 2608 ft 4 kts 223°
2026-04-25 19:32 32.11800 -110.93608 2608 ft 5 kts 225°
2026-04-25 19:32 32.11790 -110.93619 2608 ft 6 kts 225°
2026-04-25 19:33 32.11740 -110.93694 2609 ft 8 kts 275°
2026-04-25 19:33 32.11775 -110.93753 2607 ft 7 kts 304°
2026-04-25 19:33 32.11751 -110.93811 2606 ft 8 kts 225°
2026-04-25 19:33 32.11762 -110.93872 2606 ft 10 kts 314°
2026-04-25 19:34 32.11821 -110.93944 2604 ft 13 kts 315°
2026-04-25 19:34 32.11897 -110.94031 2602 ft 17 kts 314°
2026-04-25 19:34 32.11993 -110.94147 2598 ft 21 kts 315°
2026-04-25 19:34 32.12112 -110.94286 2593 ft 26 kts 316°
2026-04-25 19:35 32.12248 -110.94443 2588 ft 28 kts 315°
2026-04-25 19:35 32.12377 -110.94596 2582 ft 23 kts 315°
2026-04-25 19:35 32.12422 -110.94668 2580 ft 7 kts 250°
2026-04-25 19:35 32.12385 -110.94714 2580 ft 7 kts 224°
2026-04-25 19:36 32.12346 -110.94761 2580 ft 8 kts 226°
2026-04-25 19:36 32.12320 -110.94772 2580 ft 3 kts 148°
2026-04-25 19:36 32.12310 -110.94762 2580 ft 0 kts 135°
2026-04-25 19:36 32.12302 -110.94752 2581 ft 12 kts 135°
2026-04-25 19:37 32.12100 -110.94514 2589 ft 67 kts 135°
2026-04-25 19:37 32.11650 -110.93986 2605 ft 113 kts 135°
2026-04-25 19:37 32.11002 -110.93224 2626 ft 151 kts 135°
2026-04-25 19:37 32.10185 -110.92258 2748 ft 171 kts 137°
2026-04-25 19:38 32.09347 -110.91265 3118 ft 174 kts 137°
2026-04-25 19:38 32.08477 -110.90253 3491 ft 181 kts 137°
2026-04-25 19:38 32.07558 -110.89184 3887 ft 188 kts 138°
2026-04-25 19:38 32.06621 -110.88088 4352 ft 196 kts 139°
2026-04-25 19:39 32.05636 -110.86932 4840 ft 202 kts 139°
2026-04-25 19:39 32.04627 -110.85733 5322 ft 210 kts 139°
2026-04-25 19:39 32.03583 -110.84510 5742 ft 220 kts 140°
2026-04-25 19:39 32.02461 -110.83223 6146 ft 232 kts 141°
2026-04-25 19:40 32.01255 -110.81845 6426 ft 251 kts 140°
2026-04-25 19:40 31.99962 -110.80332 6597 ft 274 kts 140°
2026-04-25 19:40 31.98544 -110.78734 6982 ft 287 kts 140°
2026-04-25 19:40 31.97089 -110.77107 7601 ft 290 kts 140°
2026-04-25 19:41 31.95645 -110.75496 8286 ft 290 kts 140°
2026-04-25 19:41 31.94294 -110.73719 8896 ft 298 kts 121°
2026-04-25 19:41 31.93652 -110.71388 9486 ft 305 kts 105°
2026-04-25 19:41 31.93503 -110.70582 9677 ft 306 kts 105°
2026-04-25 19:42 31.92742 -110.66479 10596 ft 313 kts 105°
2026-04-25 19:42 31.92274 -110.63966 11043 ft 320 kts 105°
2026-04-25 19:42 31.91791 -110.61367 11440 ft 329 kts 105°
2026-04-25 19:42 31.91300 -110.58733 11822 ft 337 kts 105°
2026-04-25 19:43 31.90789 -110.55993 12224 ft 345 kts 105°
2026-04-25 19:43 31.90274 -110.53239 12659 ft 351 kts 105°
2026-04-25 19:43 31.89745 -110.50410 13143 ft 355 kts 104°
2026-04-25 19:43 31.89643 -110.47507 13596 ft 363 kts 81°
2026-04-25 19:44 31.90170 -110.44620 14097 ft 366 kts 78°
2026-04-25 19:44 31.90741 -110.41677 14559 ft 370 kts 78°
2026-04-25 19:44 31.91316 -110.38710 14992 ft 374 kts 77°
2026-04-25 19:44 31.91896 -110.35718 15424 ft 379 kts 78°
2026-04-25 19:45 31.92474 -110.32728 15842 ft 383 kts 78°
2026-04-25 19:45 31.93069 -110.29652 16235 ft 387 kts 78°
2026-04-25 19:45 31.93669 -110.26545 16672 ft 390 kts 78°
2026-04-25 19:45 31.94264 -110.23454 17092 ft 393 kts 78°
2026-04-25 19:46 31.94874 -110.20287 17517 ft 397 kts 78°
2026-04-25 19:46 31.95489 -110.17089 17917 ft 401 kts 78°
2026-04-25 19:46 31.96102 -110.13895 18328 ft 405 kts 78°
2026-04-25 19:46 31.96715 -110.10691 18738 ft 408 kts 78°
2026-04-25 19:47 31.97343 -110.07414 19107 ft 412 kts 78°
2026-04-25 19:47 31.97974 -110.04108 19479 ft 416 kts 78°
2026-04-25 19:47 31.98609 -110.00783 19882 ft 419 kts 78°
2026-04-25 19:47 31.99251 -109.97413 20260 ft 422 kts 78°
2026-04-25 19:48 31.99892 -109.94041 20629 ft 425 kts 77°
2026-04-25 19:48 32.00545 -109.90602 20986 ft 429 kts 78°
2026-04-25 19:48 32.01192 -109.87193 21322 ft 432 kts 78°
2026-04-25 19:48 32.01849 -109.83721 21675 ft 436 kts 77°
2026-04-25 19:49 32.02501 -109.80271 22036 ft 438 kts 77°
2026-04-25 19:49 32.02728 -109.79071 22149 ft 439 kts 77°
2026-04-25 19:49 32.04465 -109.73492 22683 ft 441 kts 58°
2026-04-25 19:49 32.05979 -109.70325 23002 ft 444 kts 58°
2026-04-25 19:50 32.09026 -109.63954 23703 ft 449 kts 57°
2026-04-25 19:50 32.10560 -109.60745 24070 ft 451 kts 58°
2026-04-25 19:50 32.12088 -109.57542 24404 ft 453 kts 58°
2026-04-25 19:51 32.13638 -109.54293 24726 ft 456 kts 57°
2026-04-25 19:51 32.15183 -109.51053 25032 ft 458 kts 58°
2026-04-25 19:51 32.16748 -109.47764 25377 ft 459 kts 57°
2026-04-25 19:51 32.18310 -109.44480 25684 ft 462 kts 57°
2026-04-25 19:52 32.19891 -109.41156 25999 ft 464 kts 57°
2026-04-25 19:52 32.21453 -109.37865 26313 ft 465 kts 57°
2026-04-25 19:52 32.23036 -109.34529 26607 ft 468 kts 58°
2026-04-25 19:52 32.24620 -109.31187 26851 ft 470 kts 58°
2026-04-25 19:53 32.26228 -109.27806 27095 ft 472 kts 56°
2026-04-25 19:53 32.28090 -109.24667 27371 ft 468 kts 45°
2026-04-25 19:53 32.30338 -109.21929 27603 ft 463 kts 35°
2026-04-25 19:53 32.32800 -109.19456 27912 ft 464 kts 36°
2026-04-25 19:54 32.35188 -109.16845 28187 ft 467 kts 37°
2026-04-25 19:54 32.37535 -109.14195 28408 ft 470 kts 38°
2026-04-25 19:54 32.39865 -109.11537 28644 ft 472 kts 38°
2026-04-25 19:55 32.44597 -109.06120 29115 ft 476 kts 38°
2026-04-25 19:55 32.46998 -109.03367 29316 ft 479 kts 38°
2026-04-25 19:55 32.49363 -109.00651 29592 ft 480 kts 38°
2026-04-25 19:55 32.51765 -108.97894 29786 ft 483 kts 38°
2026-04-25 19:56 32.54176 -108.95123 30040 ft 484 kts 38°
2026-04-25 19:56 32.56592 -108.92344 30233 ft 487 kts 38°
2026-04-25 19:56 32.59029 -108.89538 30437 ft 489 kts 38°
2026-04-25 19:56 32.61480 -108.86714 30642 ft 491 kts 38°
2026-04-25 19:57 32.63913 -108.83910 30849 ft 494 kts 38°
2026-04-25 19:57 32.66408 -108.81031 31051 ft 496 kts 37°
2026-04-25 19:57 32.68873 -108.78185 31225 ft 499 kts 37°
2026-04-25 19:57 32.71365 -108.75304 31394 ft 502 kts 37°
2026-04-25 19:58 32.73866 -108.72413 31592 ft 504 kts 38°
2026-04-25 19:58 32.76372 -108.69511 31844 ft 504 kts 38°
2026-04-25 19:58 32.78886 -108.66598 32050 ft 506 kts 37°
2026-04-25 19:58 32.81399 -108.63683 32310 ft 507 kts 37°
2026-04-25 19:59 32.83921 -108.60757 32552 ft 507 kts 37°
2026-04-25 19:59 32.86441 -108.57831 32818 ft 508 kts 37°
2026-04-25 19:59 32.88936 -108.54929 33074 ft 504 kts 37°
2026-04-25 20:00 32.93932 -108.49117 33147 ft 510 kts 37°
2026-04-25 20:00 32.99084 -108.43111 33157 ft 522 kts 37°
2026-04-25 20:01 33.06988 -108.33876 33169 ft 537 kts 38°
2026-04-25 20:01 33.12345 -108.27601 33162 ft 538 kts 38°
2026-04-25 20:02 33.17666 -108.21357 33170 ft 536 kts 38°
2026-04-25 20:02 33.22961 -108.15135 33179 ft 537 kts 38°
2026-04-25 20:03 33.28283 -108.08867 33187 ft 537 kts 38°
2026-04-25 20:03 33.33559 -108.02640 33187 ft 535 kts 37°
2026-04-25 20:04 33.38860 -107.96375 33184 ft 536 kts 38°
2026-04-25 20:04 33.44153 -107.90105 33178 ft 535 kts 38°
2026-04-25 20:05 33.49422 -107.83855 33183 ft 534 kts 37°
2026-04-25 20:05 33.54715 -107.77565 33172 ft 535 kts 38°
2026-04-25 20:06 33.59974 -107.71301 33172 ft 534 kts 38°
2026-04-25 20:06 33.65234 -107.65028 33169 ft 533 kts 37°
2026-04-25 20:07 33.70466 -107.58776 33169 ft 534 kts 37°
2026-04-25 20:07 33.75712 -107.52494 33160 ft 533 kts 37°
2026-04-25 20:08 33.80968 -107.46190 33155 ft 532 kts 38°
2026-04-25 20:08 33.86240 -107.39854 33146 ft 532 kts 37°
2026-04-25 20:09 33.91474 -107.33555 33127 ft 533 kts 38°
2026-04-25 20:09 33.96723 -107.27223 33119 ft 535 kts 38°
2026-04-25 20:10 34.01926 -107.20937 33117 ft 534 kts 38°
2026-04-25 20:10 34.07163 -107.14597 33079 ft 533 kts 38°
2026-04-25 20:11 34.12361 -107.08291 33054 ft 527 kts 38°
2026-04-25 20:11 34.17566 -107.01968 33043 ft 528 kts 38°
2026-04-25 20:12 34.22741 -106.95668 33042 ft 527 kts 38°
2026-04-25 20:12 34.26173 -106.91484 33048 ft 527 kts 38°
2026-04-25 20:13 34.32925 -106.83008 33051 ft 533 kts 45°
2026-04-25 20:13 34.36862 -106.75281 33052 ft 542 kts 58°
2026-04-25 20:14 34.40337 -106.67261 33045 ft 542 kts 58°
2026-04-25 20:14 34.43850 -106.59166 33068 ft 541 kts 58°
2026-04-25 20:15 34.47326 -106.51140 33074 ft 539 kts 57°
2026-04-25 20:15 34.50791 -106.43121 33088 ft 541 kts 58°
2026-04-25 20:16 34.54274 -106.35044 33091 ft 540 kts 58°
2026-04-25 20:16 34.57737 -106.26991 33082 ft 540 kts 58°
2026-04-25 20:17 34.61197 -106.18928 33071 ft 540 kts 58°
2026-04-25 20:17 34.64631 -106.10905 33083 ft 537 kts 58°
2026-04-25 20:18 34.68091 -106.02801 33089 ft 536 kts 58°
2026-04-25 20:18 34.71536 -105.94717 33077 ft 538 kts 58°
2026-04-25 20:19 34.74956 -105.86671 33087 ft 536 kts 58°
2026-04-25 20:19 34.78353 -105.78658 33078 ft 535 kts 58°
2026-04-25 20:20 34.81789 -105.70534 33088 ft 534 kts 58°
2026-04-25 20:20 34.85173 -105.62515 33088 ft 532 kts 58°
2026-04-25 20:21 34.88567 -105.54452 33084 ft 533 kts 58°
2026-04-25 20:21 34.91936 -105.46431 33076 ft 532 kts 58°
2026-04-25 20:22 34.94189 -105.41056 33078 ft 532 kts 58°
2026-04-25 20:22 34.98693 -105.30284 33045 ft 531 kts 59°
2026-04-25 20:23 35.02023 -105.22296 33041 ft 531 kts 59°
2026-04-25 20:23 35.05349 -105.14300 33035 ft 529 kts 59°
2026-04-25 20:24 35.08703 -105.06218 33035 ft 531 kts 59°
2026-04-25 20:24 35.12051 -104.98134 33023 ft 530 kts 59°
2026-04-25 20:25 35.15372 -104.90089 33027 ft 530 kts 59°
2026-04-25 20:25 35.18692 -104.82032 33024 ft 530 kts 59°
2026-04-25 20:26 35.21994 -104.73996 33030 ft 529 kts 58°
2026-04-25 20:26 35.25318 -104.65889 33022 ft 529 kts 59°
2026-04-25 20:27 35.28615 -104.57825 33013 ft 528 kts 59°
2026-04-25 20:27 35.31897 -104.49783 33006 ft 531 kts 59°
2026-04-25 20:28 35.35195 -104.41677 32994 ft 529 kts 58°
2026-04-25 20:28 35.38490 -104.33566 32979 ft 530 kts 60°
2026-04-25 20:29 35.41761 -104.25487 32955 ft 531 kts 60°
2026-04-25 20:29 35.45020 -104.17420 32959 ft 531 kts 59°
2026-04-25 20:30 35.48304 -104.09271 32960 ft 531 kts 60°
2026-04-25 20:30 35.51577 -104.01129 32947 ft 531 kts 60°
2026-04-25 20:31 35.54829 -103.93020 32956 ft 530 kts 60°
2026-04-25 20:31 35.58095 -103.84853 32963 ft 530 kts 59°
2026-04-25 20:32 35.61328 -103.76750 32961 ft 533 kts 59°
2026-04-25 20:32 35.64581 -103.68576 32954 ft 531 kts 59°
2026-04-25 20:33 35.67816 -103.60428 32955 ft 532 kts 59°
2026-04-25 20:33 35.69977 -103.54974 32954 ft 531 kts 60°
2026-04-25 20:34 35.74297 -103.44041 32954 ft 530 kts 59°
2026-04-25 20:34 35.77514 -103.35878 32955 ft 531 kts 59°
2026-04-25 20:35 35.80718 -103.27724 32937 ft 529 kts 60°
2026-04-25 20:35 35.83941 -103.19504 32935 ft 530 kts 60°
2026-04-25 20:36 35.87156 -103.11282 32940 ft 531 kts 60°
2026-04-25 20:36 35.90360 -103.03070 32938 ft 532 kts 60°
2026-04-25 20:37 35.93544 -102.94884 32931 ft 530 kts 60°
2026-04-25 20:37 35.96737 -102.86652 32927 ft 531 kts 60°
2026-04-25 20:38 35.99925 -102.78421 32915 ft 532 kts 60°
2026-04-25 20:38 36.03099 -102.70195 32900 ft 532 kts 60°
2026-04-25 20:39 36.06260 -102.61987 32884 ft 530 kts 60°
2026-04-25 20:39 36.08370 -102.56495 32882 ft 529 kts 60°
2026-04-25 20:40 36.12431 -102.45379 32899 ft 529 kts 61°
2026-04-25 20:40 36.15418 -102.37087 32910 ft 530 kts 62°
2026-04-25 20:41 36.18398 -102.28787 32890 ft 530 kts 62°
2026-04-25 20:41 36.21387 -102.20441 32887 ft 530 kts 62°
2026-04-25 20:42 36.24352 -102.12143 32882 ft 530 kts 62°
2026-04-25 20:42 36.27318 -102.03818 32885 ft 529 kts 62°
2026-04-25 20:43 36.30291 -101.95450 32881 ft 529 kts 62°
2026-04-25 20:43 36.33269 -101.87050 32883 ft 531 kts 62°
2026-04-25 20:44 36.36198 -101.78759 32888 ft 529 kts 62°
2026-04-25 20:44 36.39160 -101.70353 32882 ft 529 kts 62°
2026-04-25 20:45 36.42108 -101.61967 32889 ft 530 kts 62°
2026-04-25 20:45 36.45056 -101.53555 32885 ft 529 kts 62°
2026-04-25 20:46 36.47996 -101.45143 32890 ft 531 kts 62°
2026-04-25 20:46 36.50946 -101.36681 32887 ft 531 kts 62°
2026-04-25 20:47 36.53858 -101.28303 32867 ft 529 kts 63°
2026-04-25 20:47 36.56784 -101.19863 32862 ft 532 kts 63°
2026-04-25 20:48 36.59698 -101.11431 32865 ft 532 kts 63°
2026-04-25 20:48 36.62606 -101.02994 32865 ft 531 kts 63°
2026-04-25 20:49 36.65528 -100.94495 32853 ft 532 kts 63°
2026-04-25 20:49 36.68442 -100.85992 32845 ft 532 kts 62°
2026-04-25 20:50 36.71357 -100.77464 32846 ft 531 kts 62°
2026-04-25 20:50 36.74242 -100.68998 32839 ft 531 kts 62°
2026-04-25 20:51 36.77124 -100.60518 32836 ft 529 kts 62°
2026-04-25 20:51 36.79975 -100.52104 32830 ft 531 kts 62°
2026-04-25 20:52 36.82362 -100.45040 32831 ft 528 kts 62°
2026-04-25 20:52 36.85711 -100.35108 32819 ft 531 kts 62°
2026-04-25 20:53 36.88556 -100.26639 32802 ft 530 kts 63°
2026-04-25 20:53 36.91402 -100.18146 32800 ft 529 kts 63°
2026-04-25 20:54 36.94230 -100.09678 32795 ft 529 kts 62°
2026-04-25 20:54 36.97075 -100.01140 32781 ft 528 kts 63°
2026-04-25 20:55 36.99900 -99.92632 32755 ft 529 kts 62°
2026-04-25 20:55 37.02710 -99.84148 32773 ft 528 kts 62°
2026-04-25 20:56 37.05512 -99.75662 32792 ft 528 kts 62°
2026-04-25 20:56 37.08306 -99.67178 32794 ft 527 kts 62°
2026-04-25 20:57 37.11121 -99.58604 32791 ft 528 kts 62°
2026-04-25 20:57 37.13910 -99.50085 32790 ft 528 kts 62°
2026-04-25 20:58 37.16691 -99.41567 32793 ft 529 kts 62°
2026-04-25 20:58 37.19471 -99.33025 32775 ft 527 kts 63°
2026-04-25 20:59 37.22218 -99.24557 32783 ft 525 kts 62°
2026-04-25 20:59 37.24982 -99.16017 32771 ft 528 kts 62°
2026-04-25 21:00 37.26825 -99.10310 32771 ft 528 kts 62°
2026-04-25 21:01 37.31825 -98.94756 32766 ft 524 kts 62°
2026-04-25 21:01 37.34564 -98.86204 32776 ft 525 kts 62°
2026-04-25 21:02 37.37259 -98.77763 32768 ft 525 kts 62°
2026-04-25 21:02 37.39997 -98.69163 32773 ft 524 kts 62°
2026-04-25 21:03 37.42693 -98.60667 32785 ft 526 kts 62°
2026-04-25 21:03 37.45374 -98.52193 32794 ft 522 kts 63°
2026-04-25 21:04 37.48045 -98.43729 32804 ft 521 kts 63°
2026-04-25 21:04 37.50713 -98.35246 32809 ft 520 kts 63°
2026-04-25 21:05 37.53383 -98.26733 32796 ft 520 kts 63°
2026-04-25 21:05 37.56018 -98.18306 32797 ft 517 kts 63°
2026-04-25 21:06 37.58652 -98.09859 32803 ft 520 kts 64°
2026-04-25 21:06 37.61264 -98.01451 32798 ft 513 kts 64°
2026-04-25 21:07 37.63860 -97.93077 32793 ft 514 kts 64°
2026-04-25 21:07 37.66443 -97.84714 32790 ft 512 kts 64°
2026-04-25 21:08 37.69011 -97.76379 32797 ft 514 kts 64°
2026-04-25 21:08 37.71603 -97.67939 32803 ft 514 kts 64°
2026-04-25 21:09 37.75827 -97.55510 32817 ft 506 kts 52°
2026-04-25 21:09 37.79784 -97.48158 32819 ft 504 kts 51°
2026-04-25 21:10 37.83621 -97.40742 32827 ft 502 kts 51°
2026-04-25 21:10 37.87452 -97.33281 32825 ft 505 kts 52°
2026-04-25 21:11 37.91275 -97.25816 32824 ft 502 kts 52°
2026-04-25 21:11 37.95069 -97.18394 32833 ft 504 kts 52°
2026-04-25 21:12 37.98891 -97.10895 32836 ft 504 kts 53°
2026-04-25 21:12 38.01421 -97.05924 32832 ft 504 kts 52°
2026-04-25 21:13 38.06486 -96.95950 32833 ft 506 kts 52°
2026-04-25 21:13 38.10307 -96.88406 32838 ft 505 kts 53°
2026-04-25 21:14 38.14129 -96.80840 32838 ft 503 kts 53°
2026-04-25 21:14 38.17893 -96.73371 32838 ft 504 kts 53°
2026-04-25 21:15 38.21677 -96.65848 32840 ft 504 kts 53°
2026-04-25 21:15 38.25446 -96.58337 32844 ft 503 kts 53°
2026-04-25 21:16 38.29219 -96.50799 32838 ft 501 kts 53°
2026-04-25 21:16 38.32943 -96.43340 32843 ft 501 kts 53°
2026-04-25 21:17 38.36724 -96.35752 32844 ft 501 kts 54°
2026-04-25 21:17 38.40472 -96.28213 32843 ft 502 kts 54°
2026-04-25 21:18 38.44188 -96.20721 32849 ft 502 kts 54°
2026-04-25 21:18 38.47922 -96.13174 32835 ft 502 kts 55°
2026-04-25 21:19 38.51649 -96.05626 32862 ft 501 kts 55°
2026-04-25 21:19 38.55393 -95.98023 32847 ft 502 kts 55°
2026-04-25 21:20 38.57877 -95.92970 32861 ft 503 kts 55°
2026-04-25 21:20 38.62848 -95.82834 32860 ft 503 kts 55°
2026-04-25 21:21 38.66584 -95.75194 32864 ft 501 kts 55°
2026-04-25 21:21 38.70301 -95.67575 32867 ft 503 kts 55°
2026-04-25 21:22 38.74026 -95.59922 32863 ft 503 kts 55°
2026-04-25 21:22 38.77742 -95.52268 32875 ft 502 kts 55°
2026-04-25 21:23 38.81429 -95.44656 32881 ft 502 kts 55°
2026-04-25 21:23 38.85113 -95.37035 32873 ft 501 kts 55°
2026-04-25 21:24 38.88838 -95.29306 32878 ft 502 kts 56°
2026-04-25 21:24 38.92515 -95.21661 32881 ft 502 kts 56°
2026-04-25 21:25 38.96185 -95.14012 32882 ft 500 kts 56°
2026-04-25 21:25 38.99897 -95.06257 32886 ft 501 kts 56°
2026-04-25 21:26 39.03543 -94.98622 32881 ft 501 kts 56°
2026-04-25 21:26 39.07178 -94.90990 32888 ft 500 kts 56°
2026-04-25 21:27 39.10808 -94.83350 32887 ft 498 kts 56°
2026-04-25 21:27 39.14436 -94.75698 32888 ft 498 kts 56°
2026-04-25 21:28 39.18070 -94.68014 32888 ft 497 kts 56°
2026-04-25 21:28 39.21655 -94.60415 32891 ft 497 kts 56°
2026-04-25 21:29 39.25252 -94.52772 32892 ft 496 kts 56°
2026-04-25 21:29 39.28872 -94.45061 32902 ft 495 kts 56°
2026-04-25 21:30 39.32430 -94.37463 32896 ft 494 kts 56°
2026-04-25 21:30 39.35415 -94.31078 32892 ft 494 kts 56°
2026-04-25 21:31 39.39557 -94.22193 32901 ft 494 kts 56°
2026-04-25 21:31 39.43122 -94.14526 32897 ft 493 kts 56°
2026-04-25 21:32 39.46645 -94.06929 32904 ft 492 kts 56°
2026-04-25 21:32 39.50158 -93.99338 32908 ft 493 kts 56°
2026-04-25 21:33 39.53704 -93.91655 32906 ft 494 kts 56°
2026-04-25 21:33 39.57228 -93.84004 32906 ft 492 kts 56°
2026-04-25 21:34 39.60737 -93.76366 32917 ft 493 kts 56°
2026-04-25 21:34 39.64268 -93.68658 32904 ft 492 kts 56°
2026-04-25 21:35 39.67773 -93.60991 32906 ft 491 kts 56°
2026-04-25 21:35 39.71258 -93.53348 32914 ft 493 kts 56°
2026-04-25 21:36 39.74763 -93.45643 32921 ft 492 kts 56°
2026-04-25 21:36 39.78246 -93.37966 32920 ft 491 kts 56°
2026-04-25 21:37 39.80561 -93.32855 32920 ft 490 kts 57°
2026-04-25 21:37 39.85190 -93.22607 32920 ft 492 kts 57°
2026-04-25 21:38 39.88670 -93.14880 32912 ft 491 kts 57°
2026-04-25 21:38 39.92112 -93.07218 32917 ft 491 kts 57°
2026-04-25 21:39 39.95596 -92.99446 32925 ft 492 kts 57°
2026-04-25 21:39 39.99028 -92.91768 32927 ft 491 kts 57°
2026-04-25 21:40 40.02458 -92.84075 32932 ft 491 kts 57°
2026-04-25 21:40 40.05898 -92.76343 32936 ft 490 kts 57°
2026-04-25 21:41 40.09329 -92.68611 32945 ft 489 kts 57°
2026-04-25 21:41 40.12731 -92.60924 32946 ft 490 kts 57°
2026-04-25 21:42 40.15774 -92.52906 32955 ft 491 kts 62°
2026-04-25 21:42 40.18713 -92.44815 32950 ft 489 kts 62°
2026-04-25 21:43 40.21632 -92.36736 32948 ft 489 kts 62°
2026-04-25 21:43 40.24528 -92.28700 32936 ft 490 kts 63°
2026-04-25 21:44 40.27433 -92.20615 32949 ft 489 kts 63°
2026-04-25 21:45 40.31762 -92.08526 32951 ft 488 kts 63°
2026-04-25 21:45 40.34643 -92.00451 32948 ft 487 kts 63°
2026-04-25 21:46 40.37502 -91.92417 32948 ft 487 kts 63°
2026-04-25 21:46 40.40400 -91.84252 32948 ft 487 kts 63°
2026-04-25 21:47 40.43243 -91.76142 32950 ft 487 kts 64°
2026-04-25 21:47 40.46054 -91.67863 32953 ft 486 kts 64°
2026-04-25 21:48 40.48783 -91.59811 32954 ft 485 kts 64°
2026-04-25 21:48 40.51532 -91.51681 32956 ft 485 kts 64°
2026-04-25 21:49 40.54266 -91.43568 32958 ft 484 kts 64°
2026-04-25 21:49 40.57027 -91.35455 32963 ft 484 kts 63°
2026-04-25 21:50 40.59794 -91.27368 32961 ft 483 kts 64°
2026-04-25 21:50 40.62549 -91.19293 32961 ft 483 kts 64°
2026-04-25 21:51 40.65311 -91.11175 32959 ft 483 kts 64°
2026-04-25 21:51 40.68032 -91.03153 32956 ft 482 kts 64°
2026-04-25 21:52 40.70803 -90.94958 32956 ft 482 kts 64°
2026-04-25 21:52 40.73543 -90.86834 32956 ft 481 kts 64°
2026-04-25 21:53 40.76278 -90.78700 32954 ft 481 kts 64°
2026-04-25 21:53 40.78990 -90.70610 32964 ft 481 kts 64°
2026-04-25 21:54 40.81693 -90.62524 32963 ft 481 kts 64°
2026-04-25 21:54 40.84389 -90.54462 32969 ft 477 kts 64°
2026-04-25 21:55 40.87053 -90.46493 32985 ft 475 kts 64°
2026-04-25 21:55 40.89704 -90.38532 32523 ft 476 kts 64°
2026-04-25 21:55 40.91016 -90.34586 32033 ft 470 kts 65°
2026-04-25 21:56 40.92327 -90.30639 31511 ft 463 kts 65°
2026-04-25 21:56 40.93177 -90.28075 31172 ft 459 kts 65°
2026-04-25 21:56 40.94869 -90.22964 30504 ft 451 kts 65°
2026-04-25 21:56 40.96144 -90.19108 30001 ft 448 kts 65°
2026-04-25 21:57 40.97383 -90.15354 29512 ft 443 kts 65°
2026-04-25 21:57 40.98634 -90.11560 29011 ft 439 kts 65°
2026-04-25 21:57 40.99863 -90.07828 28518 ft 435 kts 65°
2026-04-25 21:57 41.01048 -90.04221 28052 ft 432 kts 65°
2026-04-25 21:58 41.02252 -90.00556 27570 ft 428 kts 66°
2026-04-25 21:58 41.03418 -89.97002 27111 ft 425 kts 65°
2026-04-25 21:58 41.04595 -89.93448 26684 ft 422 kts 65°
2026-04-25 21:58 41.05779 -89.89870 26216 ft 419 kts 65°
2026-04-25 21:59 41.06932 -89.86379 25758 ft 416 kts 65°
2026-04-25 21:59 41.08078 -89.82906 25299 ft 411 kts 66°
2026-04-25 21:59 41.09214 -89.79459 24849 ft 408 kts 66°
2026-04-25 22:00 41.11464 -89.72620 23951 ft 402 kts 66°
2026-04-25 22:00 41.12564 -89.69269 23515 ft 399 kts 66°
2026-04-25 22:00 41.13670 -89.65898 23079 ft 398 kts 66°
2026-04-25 22:00 41.14759 -89.62573 22646 ft 395 kts 66°
2026-04-25 22:01 41.15920 -89.59311 22205 ft 392 kts 56°
2026-04-25 22:01 41.17722 -89.56591 21853 ft 390 kts 44°
2026-04-25 22:01 41.19644 -89.54092 21398 ft 387 kts 44°
2026-04-25 22:01 41.20921 -89.52441 21115 ft 386 kts 44°
2026-04-25 22:02 41.23485 -89.49135 20551 ft 383 kts 44°
2026-04-25 22:02 41.25372 -89.46701 20132 ft 381 kts 44°
2026-04-25 22:02 41.27280 -89.44284 20003 ft 377 kts 44°
2026-04-25 22:02 41.29174 -89.41913 19829 ft 367 kts 44°
2026-04-25 22:03 41.31007 -89.39616 19137 ft 365 kts 44°
2026-04-25 22:03 41.32882 -89.37265 18381 ft 374 kts 44°
2026-04-25 22:03 41.34778 -89.34885 17840 ft 373 kts 45°
2026-04-25 22:03 41.36633 -89.32557 17384 ft 368 kts 45°
2026-04-25 22:04 41.38494 -89.30218 16928 ft 364 kts 45°
2026-04-25 22:04 41.40310 -89.27934 16477 ft 361 kts 45°
2026-04-25 22:04 41.42120 -89.25655 16049 ft 359 kts 45°
2026-04-25 22:04 41.43931 -89.23372 15608 ft 357 kts 45°
2026-04-25 22:05 41.45716 -89.21139 15166 ft 354 kts 42°
2026-04-25 22:05 41.47876 -89.19560 14755 ft 355 kts 19°
2026-04-25 22:05 41.50253 -89.18662 14323 ft 354 kts 16°
2026-04-25 22:05 41.52602 -89.17812 13924 ft 353 kts 16°
2026-04-25 22:06 41.54959 -89.16963 13523 ft 350 kts 16°
2026-04-25 22:06 41.57302 -89.16122 13124 ft 348 kts 15°
2026-04-25 22:06 41.59616 -89.15291 12723 ft 346 kts 15°
2026-04-25 22:06 41.61932 -89.14459 12333 ft 343 kts 15°
2026-04-25 22:07 41.64238 -89.13629 11990 ft 339 kts 15°
2026-04-25 22:07 41.65763 -89.13081 11953 ft 338 kts 15°
2026-04-25 22:07 41.68792 -89.11992 11943 ft 339 kts 15°
2026-04-25 22:07 41.71050 -89.11179 11938 ft 340 kts 15°
2026-04-25 22:08 41.73327 -89.10216 11942 ft 340 kts 21°
2026-04-25 22:08 41.75507 -89.09072 11936 ft 340 kts 21°
2026-04-25 22:08 41.77712 -89.07915 11953 ft 340 kts 21°
2026-04-25 22:08 41.79930 -89.06749 11941 ft 340 kts 21°
2026-04-25 22:09 41.82076 -89.05430 11950 ft 341 kts 33°
2026-04-25 22:09 41.84027 -89.03601 11966 ft 341 kts 36°
2026-04-25 22:09 41.85955 -89.01756 11964 ft 341 kts 36°
2026-04-25 22:09 41.87871 -88.99920 11966 ft 341 kts 36°
2026-04-25 22:10 41.89790 -88.98078 11967 ft 342 kts 36°
2026-04-25 22:10 41.91736 -88.96210 11967 ft 341 kts 36°
2026-04-25 22:10 41.93504 -88.94151 11958 ft 340 kts 54°
2026-04-25 22:10 41.94449 -88.91280 11986 ft 337 kts 81°
2026-04-25 22:11 41.94572 -88.88132 11994 ft 336 kts 89°
2026-04-25 22:11 41.94669 -88.85011 11971 ft 336 kts 88°
2026-04-25 22:11 41.94803 -88.81909 11970 ft 336 kts 87°
2026-04-25 22:11 41.94953 -88.78765 11972 ft 336 kts 87°
2026-04-25 22:12 41.95107 -88.75667 11970 ft 336 kts 87°
2026-04-25 22:12 41.95265 -88.72504 11975 ft 336 kts 86°
2026-04-25 22:12 41.95416 -88.69485 11926 ft 317 kts 86°
2026-04-25 22:12 41.95465 -88.68512 11914 ft 309 kts 86°
2026-04-25 22:13 41.95700 -88.63767 10830 ft 312 kts 86°
2026-04-25 22:13 41.95844 -88.60857 10177 ft 314 kts 85°
2026-04-25 22:13 41.95985 -88.57972 9771 ft 306 kts 85°
2026-04-25 22:13 41.96115 -88.55205 9409 ft 297 kts 87°
2026-04-25 22:14 41.96148 -88.52470 9051 ft 288 kts 88°
2026-04-25 22:14 41.96169 -88.49831 8951 ft 281 kts 88°
2026-04-25 22:14 41.96185 -88.47188 8631 ft 283 kts 88°
2026-04-25 22:14 41.96208 -88.44549 8297 ft 281 kts 87°
2026-04-25 22:15 41.96239 -88.41929 7937 ft 279 kts 87°
2026-04-25 22:15 41.96263 -88.39376 7570 ft 274 kts 87°
2026-04-25 22:15 41.96282 -88.36829 7200 ft 267 kts 87°
2026-04-25 22:16 41.96307 -88.31960 6479 ft 256 kts 88°
2026-04-25 22:16 41.96323 -88.29594 6116 ft 250 kts 87°
2026-04-25 22:16 41.96341 -88.27314 5768 ft 245 kts 87°
2026-04-25 22:16 41.96358 -88.25027 5417 ft 240 kts 87°
2026-04-25 22:17 41.96375 -88.22807 5089 ft 236 kts 87°
2026-04-25 22:17 41.96391 -88.20668 4817 ft 228 kts 87°
2026-04-25 22:17 41.96406 -88.18565 4486 ft 222 kts 86°
2026-04-25 22:17 41.96421 -88.16517 4155 ft 217 kts 86°
2026-04-25 22:18 41.96435 -88.14540 3852 ft 212 kts 86°
2026-04-25 22:18 41.96448 -88.12579 3557 ft 207 kts 86°
2026-04-25 22:18 41.96460 -88.10680 3273 ft 202 kts 86°
2026-04-25 22:18 41.96472 -88.08817 3018 ft 196 kts 86°
2026-04-25 22:19 41.96482 -88.07040 2748 ft 179 kts 86°
2026-04-25 22:19 41.96491 -88.05461 2487 ft 162 kts 85°
2026-04-25 22:19 41.96499 -88.04031 2315 ft 143 kts 84°
2026-04-25 22:19 41.96508 -88.02720 2115 ft 139 kts 84°
2026-04-25 22:20 41.96515 -88.01429 1913 ft 134 kts 84°
2026-04-25 22:20 41.96522 -88.00191 1731 ft 131 kts 84°
2026-04-25 22:20 41.96529 -87.98967 1555 ft 129 kts 84°
2026-04-25 22:20 41.96535 -87.97781 1381 ft 126 kts 85°
2026-04-25 22:21 41.96542 -87.96616 1216 ft 126 kts 84°
2026-04-25 22:21 41.96550 -87.95424 1047 ft 126 kts 85°
2026-04-25 22:21 41.96564 -87.94249 876 ft 127 kts 85°
2026-04-25 22:21 41.96571 -87.93058 709 ft 127 kts 86°
2026-04-25 22:22 41.96573 -87.91961 666 ft 99 kts 89°
2026-04-25 22:22 41.96573 -87.91268 666 ft 50 kts 90°
2026-04-25 22:22 41.96605 -87.90913 665 ft 28 kts 71°
2026-04-25 22:22 41.96661 -87.90754 663 ft 14 kts 58°
2026-04-25 22:23 41.96711 -87.90665 663 ft 7 kts 11°
2026-04-25 22:23 41.96738 -87.90712 664 ft 6 kts 274°
2026-04-25 22:23 41.96739 -87.90778 664 ft 8 kts 269°
2026-04-25 22:23 41.96738 -87.90878 664 ft 13 kts 269°
2026-04-25 22:24 41.96738 -87.91013 666 ft 15 kts 270°
2026-04-25 22:24 41.96738 -87.91183 666 ft 20 kts 270°
2026-04-25 22:24 41.96737 -87.91379 666 ft 21 kts 269°
2026-04-25 22:24 41.96737 -87.91576 668 ft 21 kts 269°
2026-04-25 22:25 41.96737 -87.91785 668 ft 22 kts 270°
2026-04-25 22:25 41.96735 -87.92004 667 ft 23 kts 270°
2026-04-25 22:25 41.96736 -87.92229 669 ft 24 kts 270°
2026-04-25 22:25 41.96735 -87.92457 669 ft 25 kts 270°
2026-04-25 22:26 41.96740 -87.92637 672 ft 12 kts 297°
2026-04-25 22:26 41.96815 -87.92665 673 ft 12 kts 359°
2026-04-25 22:26 41.96904 -87.92664 673 ft 13 kts 359°
2026-04-25 22:26 41.96998 -87.92667 673 ft 14 kts
2026-04-25 22:27 41.97100 -87.92667 671 ft 14 kts
2026-04-25 22:27 41.97154 -87.92593 669 ft 13 kts 88°
2026-04-25 22:27 41.97155 -87.92460 669 ft 14 kts 88°
2026-04-25 22:27 41.97155 -87.92319 669 ft 15 kts 90°
2026-04-25 22:28 41.97155 -87.92168 669 ft 16 kts 90°
2026-04-25 22:28 41.97155 -87.91999 666 ft 19 kts 90°
2026-04-25 22:28 41.97156 -87.91810 666 ft 20 kts 90°
2026-04-25 22:28 41.97155 -87.91618 666 ft 21 kts 89°
2026-04-25 22:29 41.97157 -87.91412 666 ft 22 kts 90°
2026-04-25 22:29 41.97157 -87.91204 666 ft 22 kts 89°
2026-04-25 22:29 41.97158 -87.90989 666 ft 23 kts 89°
2026-04-25 22:30 41.97149 -87.90596 665 ft 16 kts 95°
2026-04-25 22:30 41.97145 -87.90528 663 ft 0 kts 95°
2026-04-25 22:30 41.97147 -87.90520 663 ft 1 kts 52°
2026-04-25 22:30 41.97156 -87.90517 663 ft 2 kts 349°
2026-04-25 22:31 41.97187 -87.90524 663 ft 4 kts 353°
2026-04-25 22:31 41.97212 -87.90550 663 ft 5 kts 284°
2026-04-25 22:31 41.97214 -87.90595 664 ft 4 kts 272°
2026-04-25 22:31 41.97225 -87.90623 664 ft 3 kts 350°
2026-04-25 22:32 41.97257 -87.90603 663 ft 4 kts 28°
2026-04-25 22:32 41.97272 -87.90591 663 ft 1 kts 29°
2026-04-25 22:32 41.97276 -87.90588 663 ft 0 kts 29°